Regional Weather Roundup
Issued by NWS

Home | Current Version | Previous Version | Text Only | Print | Product List | Glossary On
Versions: 1 2 3 4 5 6 7 8 9 10 11 12 13 14 15 16 17 18 19 20 21 22 23 24 25 26 27 28 29 30 31 32 33 34 35 36 37 38 39 40 41 42 43 44 45 46 47 48 49 50
000
ASUS44 KJAN 011910
RWRMS

MISSISSIPPI HOURLY WEATHER ROUNDUP
NATIONAL WEATHER SERVICE JACKSON MS
100 PM CST SUN FEB 01 2015

NOTE: "FAIR: INDICATES FEW OR NO CLOUDS BELOW 12,000 FEET WITH NO
SIGNIFICANT WEATHER AND/OR OBSTRUCTIONS TO VISIBILITY.

MSZ001>002-007>008-010>013-018>021-025>028-034>036-012000-
NORTHWEST MISSISSIPPI

CITY           SKY/WX    TMP DP  RH WIND       PRES   REMARKS
CLARKSDALE     CLOUDY    57  57 100 S16       29.76F
CLEVELAND      CLOUDY    61  59  94 SW14G21   29.78F
GREENWOOD      CLOUDY    63  57  81 S16       29.81F
GREENVILLE     CLOUDY    64  58  80 SW18      29.77F
GRENADA        CLOUDY    61  55  82 S13G20    29.80F
OLIVE BRANCH   CLOUDY    55  55 100 S16G28    29.73F
OXFORD         CLOUDY    55  54  94 S9G18     29.79F FOG
TUNICA         CLOUDY    57  55  94 S18G25    29.74F
$$

MSZ003>006-009-014>017-022>024-029>033-037>039-012000-
NORTHEAST MISSISSIPPI

CITY           SKY/WX    TMP DP  RH WIND       PRES   REMARKS
COLUMBUS AFB   CLOUDY    53  50  91 S13       29.87F
CORINTH        LGT RAIN  54  50  87 S20G26    29.76F
GOLDN TRIANGLE CLOUDY    52  48  87 S14       29.88F
STARKVILLE     CLOUDY    55  54  94 S7        29.86F
TUPELO         CLOUDY    52  48  86 SW17      29.83F
$$

MSZ040-058-012000-
CENTRAL MISSISSIPPI

CITY           SKY/WX    TMP DP  RH WIND       PRES   REMARKS
JACKSON INTL   CLOUDY    67  59  75 S12       29.86F
JACKSON HAWKNS CLOUDY    67  58  72 SW13      29.86F
MERIDIAN KEY   CLOUDY    62  56  80 S20G25    29.89F
MERIDIAN NAS   PTSUNNY   64  56  75 S8G26     29.90F
RAYMOND        MOCLDY    68  63  83 MISG      29.85F
VICKSBURG      PTSUNNY   71  60  68 S10G18    29.84F
$$

MSZ059>079-012000-
SOUTH MISSISSIPPI

CITY           SKY/WX    TMP DP  RH WIND       PRES   REMARKS
BROOKHAVEN     MOCLDY    68  61  77 S12G24    29.89F
HATTIESBURG    CLOUDY    70  61  73 S10       29.93F
MCCOMB         PTSUNNY   66  62  87 S10       29.91F
NATCHEZ        CLOUDY    70  59  68 SW10G22   29.88F
PINE BELT      PTSUNNY   66  59  77 S12       29.92F
$$

MSZ080>082-012000-
COASTAL MISSISSIPPI

CITY           SKY/WX    TMP DP  RH WIND       PRES   REMARKS
BAY ST LOUIS   MOSUNNY   70  61  73 S12       29.95F
BILOXI         CLOUDY    67  66  97 SW14      29.95F
PASCAGOULA     LGT RAIN  65  63  93 S7        29.96F FOG
GULFPORT       PTSUNNY   68  63  84 S8        29.95F
$$


USA.gov is the U.S. government's official web portal to all federal, state and local government web resources and services.